Temperature
21 21 19 18 17 16 16 16 16 16 16 16 16 15 15 15 15 15 15 15 15 15 14 14 14 14 14 14 14 14 14 14 15 15 15 15 15 15 15 15 14 13 14
22 21 20 18 17 16 16 16 16 16 16 16 15 15 15 15 15 15 15 15 15 14 14 14 14 14 14 14 14 14 14 14 15 15 15 15 15 15 15 15 14 13 14
21 21 20 19 17 16 16 16 16 16 16 15 15 15 15 14 14 15 15 15 14 14 14 14 14 14 14 14 14 14 14 14 14 14 14 13 14 15 15 14 14 14 13
20 20 20 19 18 17 16 15 15 15 15 15 15 14 14 14 15 15 15 14 14 14 14 14 14 14 14 14 14 14 14 14 14 14 13 13 13 14 14 14 14 13 13
19 19 20 19 18 17 16 15 15 15 15 15 15 14 14 15 15 15 15 14 14 14 14 14 14 14 14 14 14 14 14 14 14 13 13 13 13 14 14 13 13 13 13
18 18 20 19 18 18 17 16 15 15 15 15 15 15 15 15 16 16 16 15 15 14 14 14 14 15 14 14 14 14 14 13 13 12 12 12 12 13 13 13 13 13 13
17 17 18 19 18 18 18 17 16 15 15 15 15 15 15 15 16 16 16 15 15 15 15 15 15 15 14 14 14 14 13 13 12 12 12 12 13 13 13 13 13 13 13
18 17 18 18 18 18 18 17 17 16 15 15 15 15 15 15 16 16 16 15 15 15 15 15 15 14 14 14 14 14 14 13 13 12 12 12 13 13 13 13 13 12 12
17 17 18 18 18 17 18 18 17 16 15 15 14 15 15 15 15 16 15 15 15 15 15 15 14 14 14 14 14 14 14 13 12 12 12 12 12 12 12 12 12 12 12
18 17 17 17 17 17 17 17 17 16 15 15 14 14 15 15 15 15 15 15 15 15 14 14 14 14 14 14 14 14 14 13 12 12 12 12 12 12 12 11 11 11 11
18 17 17 17 17 16 16 17 17 16 15 15 14 14 14 14 14 15 15 15 15 14 14 14 14 14 14 14 13 13 13 13 12 12 12 12 12 11 11 11 11 11 11
18 17 17 17 17 16 16 16 16 16 16 15 14 15 14 13 13 13 14 14 14 14 14 14 14 14 13 13 13 13 13 13 12 11 11 11 11 11 11 11 11 11 11
17 17 17 17 17 17 17 16 16 16 16 15 14 15 14 13 13 13 13 14 14 14 14 14 14 13 13 13 13 13 13 12 11 11 11 11 11 11 11 11 11 11 11
17 17 18 17 17 17 17 16 16 16 16 16 16 15 15 14 14 13 13 13 13 13 14 14 13 13 13 13 13 13 13 12 11 10 10 11 10 10 10 11 10 10 10
16 17 17 17 17 17 17 17 16 16 16 16 16 16 15 15 15 14 13 13 13 13 14 14 13 13 13 13 13 13 12 12 11 10 10 11 10 10 10 10 10 10 10
16 16 17 17 17 17 17 17 17 16 16 16 16 16 15 15 15 14 14 14 13 13 13 13 13 13 13 13 13 12 12 12 11 10 9 10 10 10 10 10 10 10 9
16 16 17 17 17 17 17 17 17 17 16 16 16 16 15 15 15 15 14 14 13 13 13 13 13 13 12 12 12 12 12 11 11 10 10 9 10 10 10 10 10 10 9
17 17 17 17 17 17 17 17 17 17 17 16 16 16 15 15 15 14 14 14 14 13 13 13 13 12 12 12 12 12 12 11 11 10 10 10 9 9 9 10 9 9 9
16 17 17 17 17 17 17 17 17 17 17 17 17 16 16 15 15 15 14 14 14 13 13 13 13 12 12 12 11 11 11 11 10 11 10 10 10 9 9 9 9 9 9
16 16 17 17 17 17 17 17 17 17 17 17 17 17 17 16 16 15 14 14 14 13 13 13 12 12 12 11 11 11 11 10 10 10 9 10 10 9 9 9 9 9 8
16 16 16 17 17 17 16 16 17 17 17 18 18 18 17 17 16 15 15 14 14 14 13 13 12 12 11 11 10 10 10 10 10 10 10 9 9 9 9 9 9 9 8
15 16 16 16 16 16 16 16 16 16 16 17 17 17 17 17 16 16 15 15 15 14 13 13 12 12 11 11 10 10 9 9 10 10 10 9 9 9 9 9 9 9 8
14 14 15 15 16 16 16 16 15 15 15 15 16 16 17 17 16 16 16 15 15 14 14 13 13 12 12 11 11 10 10 10 9 10 10 10 9 9 9 9 9 9 8
13 13 14 14 15 15 15 15 15 14 14 15 16 16 17 16 16 16 15 15 14 14 14 13 13 12 12 11 11 11 11 11 11 10 10 10 10 9 9 9 9 8 8
12 13 13 14 14 14 14 15 14 14 13 14 14 14 15 15 15 15 15 14 14 14 14 13 13 12 12 12 11 11 11 11 11 11 10 10 10 10 9 9 8 8 7
12 12 13 13 13 14 14 14 14 14 14 13 13 13 13 14 14 14 14 14 14 14 14 13 13 12 12 12 11 11 11 11 11 11 10 11 10 10 9 9 8 8 7
Wind_Speed
11 16 18 15 14 13 15 16 17 16 16 16 16 15 14 12 10 8 6 5 4 6 9 12 14 14 14 13 13 13 14 14 14 14 13 12 11 10 9 7 3 8 8
14 18 18 16 14 14 15 16 17 17 17 16 16 15 13 11 9 8 7 6 7 9 11 14 15 14 14 13 13 12 12 13 13 12 10 11 11 9 9 7 7 8 7
16 18 18 16 15 14 15 16 17 17 17 16 15 14 12 11 9 8 8 8 10 12 13 14 14 14 13 12 12 11 11 10 10 8 4 9 10 8 7 6 6 6 5
16 17 17 17 16 15 15 17 18 18 17 16 15 14 12 11 9 9 9 9 12 13 14 14 14 13 12 11 10 10 9 8 7 2 6 8 8 8 5 4 3 3 3
15 15 17 18 16 15 15 16 16 17 17 16 15 14 12 11 10 10 10 11 12 13 13 13 12 11 10 9 9 8 8 7 5 3 8 7 7 7 6 5 3 2 2
14 15 16 16 15 15 14 14 15 16 17 16 15 14 12 11 10 10 10 10 11 11 11 11 10 9 8 8 7 7 7 6 4 7 6 6 7 7 7 6 6 6 6
13 13 16 15 14 13 13 13 13 15 16 17 16 14 13 12 11 11 10 9 10 10 10 10 9 8 7 6 6 6 6 4 4 5 5 5 7 6 8 10 11 12 14
13 13 15 14 13 12 12 12 12 14 16 17 16 15 13 12 12 11 10 9 9 10 10 9 9 8 7 6 5 5 5 2 4 4 4 4 6 5 8 11 13 16 18
13 13 13 14 13 12 11 11 12 13 15 17 16 15 14 13 12 11 10 9 9 9 9 9 9 8 7 6 6 6 6 3 2 3 2 3 5 6 11 14 17 18 18
11 12 12 13 13 13 13 12 11 12 14 16 16 15 14 13 13 12 10 9 8 8 9 9 9 8 8 8 7 7 6 3 2 2 1 4 6 10 14 16 16 16 16
10 11 11 11 12 11 11 12 12 12 13 14 15 15 14 12 12 11 10 9 8 8 9 10 11 10 9 8 7 5 3 1 2 1 3 8 10 14 15 14 14 14 14
11 11 10 10 11 11 10 11 12 12 13 14 14 15 13 11 9 9 11 9 8 8 10 11 11 9 6 5 6 4 2 2 2 4 8 12 13 14 13 12 12 12 12
10 11 11 11 11 11 9 10 9 10 11 13 14 15 13 11 9 9 10 10 10 10 10 10 9 6 5 4 3 3 2 2 3 6 10 12 12 12 11 10 10 10 11
10 11 12 12 11 12 11 10 10 10 10 11 13 15 13 10 10 10 9 10 10 9 8 8 6 6 6 5 4 4 5 4 4 5 9 11 11 11 10 9 9 9 9
11 12 13 13 13 12 11 10 10 11 11 13 13 15 15 11 10 10 10 10 10 9 9 8 8 7 7 6 5 5 5 5 6 6 8 10 11 10 8 8 8 8 8
13 13 13 15 15 14 12 11 11 12 13 13 14 16 17 14 12 11 10 11 11 10 10 9 9 7 6 6 5 6 6 6 6 7 8 9 10 9 8 7 7 7 7
12 13 14 15 16 17 16 15 13 13 14 13 14 17 18 17 15 13 11 10 11 12 11 9 9 7 6 5 6 6 6 7 7 7 7 7 8 9 8 8 7 6 6
12 13 14 13 16 18 17 15 13 14 14 14 15 16 19 20 18 15 11 11 13 12 11 9 8 7 7 6 6 6 6 7 9 8 8 8 7 8 9 8 7 6 5
11 12 13 14 16 17 17 15 14 13 13 14 15 15 18 21 21 18 13 13 14 12 10 10 9 9 8 7 6 6 6 7 8 9 9 9 8 8 8 9 8 6 5
10 10 11 12 14 15 14 13 12 12 13 14 14 16 19 19 21 19 14 15 15 12 11 11 11 9 7 7 6 6 6 6 7 8 9 9 9 10 9 9 8 6 5
7 8 10 11 12 12 11 13 13 14 15 14 14 18 19 19 20 19 14 15 15 14 15 15 12 11 8 8 6 5 6 7 8 8 9 9 10 11 10 10 8 7 6
5 6 7 9 10 12 12 13 13 14 13 14 13 14 19 20 20 17 18 16 16 15 17 17 14 10 8 10 8 5 5 7 8 9 9 9 10 11 11 11 10 8 7
6 6 6 7 8 10 11 11 11 12 12 12 13 14 17 20 20 19 19 17 17 17 16 18 18 16 11 11 10 8 6 7 6 8 11 10 10 9 10 11 11 9 7
7 7 7 7 8 8 8 10 14 14 16 17 15 15 16 18 18 20 19 18 17 16 17 18 19 17 15 12 10 8 6 3 5 6 7 10 11 11 10 9 10 9 8
8 7 7 7 7 7 7 9 12 15 15 14 15 17 17 16 17 18 18 17 17 17 18 18 18 19 16 15 10 8 7 4 6 5 5 7 8 9 9 9 8 8 8
9 9 8 9 8 7 7 8 10 14 15 16 17 16 15 13 13 18 17 17 18 17 19 19 19 20 18 17 14 11 9 7 8 7 5 5 6 7 9 7 7 8 8
Wind_Direction
156 153 151 153 154 154 153 150 146 143 141 138 133 129 125 122 120 117 115 108 106 116 111 105 100 96 91 87 85 84 82 80 78 73 69 71 79 82 80 73 56 78 68
151 151 149 154 156 156 155 151 147 144 141 137 133 130 127 125 123 123 121 108 100 113 111 102 97 94 93 92 90 88 86 84 80 77 79 86 78 77 77 67 40 63 67
150 150 153 156 157 156 154 149 145 143 141 138 136 132 129 126 125 125 124 112 96 100 102 99 96 95 95 95 93 91 91 89 87 89 106 90 87 78 76 69 64 66 65
151 152 157 154 157 156 152 150 149 147 145 143 139 135 131 128 126 124 121 114 98 94 94 95 94 97 98 96 93 91 93 95 97 126 89 78 78 73 76 70 61 57 49
154 155 150 154 156 155 153 153 155 154 151 147 142 137 133 130 129 124 116 107 98 94 94 94 94 97 98 96 92 91 96 103 117 100 81 78 74 65 71 66 60 65 28
157 156 152 154 154 154 155 158 161 160 157 151 145 140 137 134 131 124 114 107 103 100 99 98 98 99 99 96 92 92 100 118 152 87 82 74 67 62 70 64 64 73 67
159 157 154 153 154 157 160 163 167 165 160 154 149 145 142 137 132 128 123 118 115 112 111 109 106 102 98 93 92 94 102 114 97 92 82 73 56 60 70 73 75 77 73
160 160 156 156 156 162 168 171 174 170 163 159 155 151 147 141 138 137 135 131 127 124 121 118 112 105 96 91 92 98 108 131 116 99 86 80 43 67 85 84 84 82 76
165 166 165 168 169 170 175 179 179 175 168 163 160 157 152 147 146 146 145 142 138 134 128 123 116 107 99 94 97 102 109 124 123 99 90 77 49 88 96 93 90 83 77
174 175 174 175 177 179 181 181 180 174 170 167 165 162 157 154 155 155 159 153 147 143 137 129 120 113 107 102 103 106 120 170 101 124 120 93 95 103 100 96 88 83 79
185 186 185 182 182 183 182 176 183 178 174 172 173 167 168 176 171 169 167 157 157 153 146 135 126 121 117 111 109 120 157 147 116 107 105 103 109 104 99 93 89 85 81
192 195 194 192 190 189 185 183 191 189 187 191 188 183 191 189 184 177 162 169 163 152 144 138 135 141 153 138 132 165 147 139 132 113 108 109 108 103 98 94 91 87 83
199 200 203 201 199 198 193 194 194 195 194 200 197 191 193 192 190 191 180 180 179 173 168 151 165 173 173 154 159 156 139 146 133 123 116 113 111 107 103 98 94 89 85
207 208 209 209 208 208 207 203 203 201 199 201 201 200 197 196 199 199 199 194 192 194 191 192 197 180 177 173 173 164 162 165 154 135 119 117 116 114 108 103 98 94 90
217 215 213 213 213 211 213 216 214 213 208 206 205 206 206 202 203 205 206 202 204 201 198 203 203 191 187 179 177 176 174 170 166 150 131 116 117 119 117 113 107 101 95
224 221 216 214 215 214 213 215 219 220 217 216 211 209 209 209 207 207 208 206 206 204 205 205 207 197 193 187 182 182 180 176 177 171 152 131 118 123 128 124 115 106 99
236 231 223 219 216 217 217 218 220 222 221 221 218 215 212 213 211 210 210 207 207 204 201 204 202 199 193 188 189 187 186 187 183 179 172 162 145 133 135 133 125 115 101
247 240 234 225 222 220 220 220 220 221 222 223 222 219 216 215 214 213 212 210 206 200 197 195 193 193 191 194 192 187 190 190 194 186 181 178 169 159 146 137 133 123 109
254 248 242 233 230 226 224 223 222 223 223 225 224 223 220 217 215 214 214 210 204 201 200 196 197 198 197 193 191 189 193 194 194 193 192 186 179 177 166 140 131 121 120
264 258 251 243 237 235 231 227 226 226 227 225 224 224 222 220 217 216 215 211 204 203 201 198 196 197 197 182 176 187 198 202 203 203 198 192 187 187 185 174 169 151 136
273 264 257 251 244 237 232 226 224 226 228 228 226 225 224 222 219 216 215 211 205 207 205 201 193 189 186 171 168 187 201 212 215 208 206 201 197 194 194 194 198 194 185
310 291 275 261 254 244 236 233 231 231 232 231 229 228 225 223 220 217 216 212 206 208 206 201 191 191 183 184 187 185 202 205 216 214 210 211 205 198 202 203 202 203 206
356 331 307 290 274 260 251 244 239 237 236 233 230 228 226 223 221 218 219 217 210 208 206 202 196 194 191 193 200 196 199 210 187 195 210 210 209 206 205 203 203 202 202
359 343 326 311 295 281 264 247 238 234 233 233 232 232 229 224 222 220 221 220 215 212 211 206 203 203 196 193 202 223 238 215 185 181 197 210 211 213 209 199 199 197 195
355 346 335 325 315 302 281 260 251 245 244 244 240 238 235 228 222 219 219 218 217 214 215 210 205 206 203 200 193 191 206 214 224 200 186 189 203 212 208 201 195 192 188
353 348 340 332 325 318 301 280 258 253 251 249 245 243 240 234 226 221 219 218 218 217 217 213 208 209 209 207 201 194 190 190 201 204 197 180 190 190 194 195 196 191 186
Height
1527 1529 1530 1532 1534 1536 1539 1541 1543 1544 1546 1547 1548 1548 1549 1549 1549 1549 1549 1549 1549 1549 1549 1549 1549 1549 1549 1549 1549 1549 1549 1549 1550 1550 1550 1550 1550 1550 1549 1549 1549 1550 1548
1526 1529 1530 1532 1534 1537 1539 1541 1543 1545 1546 1547 1548 1549 1549 1549 1549 1549 1549 1549 1550 1550 1550 1551 1551 1551 1551 1550 1550 1550 1550 1550 1550 1551 1551 1551 1551 1550 1550 1550 1550 1550 1549
1526 1529 1531 1533 1535 1537 1539 1541 1543 1545 1546 1547 1548 1549 1549 1549 1549 1549 1549 1550 1551 1551 1552 1552 1552 1552 1552 1551 1551 1551 1551 1551 1551 1552 1552 1553 1552 1551 1551 1551 1551 1551 1550
1527 1529 1531 1533 1535 1538 1540 1542 1543 1545 1547 1548 1549 1549 1549 1549 1549 1549 1550 1551 1552 1552 1553 1554 1554 1554 1553 1553 1553 1553 1553 1553 1553 1553 1555 1555 1554 1553 1553 1553 1552 1552 1552
1527 1530 1532 1534 1536 1538 1540 1542 1544 1545 1547 1548 1549 1549 1550 1550 1550 1550 1550 1551 1552 1553 1554 1555 1555 1555 1555 1555 1555 1555 1555 1555 1555 1556 1556 1556 1555 1554 1554 1554 1554 1553 1553
1529 1531 1532 1534 1536 1538 1540 1542 1544 1545 1547 1548 1549 1550 1550 1550 1551 1551 1551 1552 1553 1554 1555 1556 1556 1556 1556 1557 1557 1557 1556 1556 1557 1557 1557 1557 1557 1555 1555 1555 1554 1554 1554
1530 1532 1533 1535 1537 1539 1541 1543 1544 1545 1547 1548 1549 1550 1550 1551 1551 1552 1552 1553 1554 1555 1556 1557 1557 1557 1558 1558 1558 1558 1558 1558 1559 1558 1558 1558 1557 1556 1556 1555 1555 1555 1555
1531 1532 1534 1535 1537 1539 1541 1543 1544 1546 1547 1548 1549 1550 1551 1551 1552 1553 1553 1554 1555 1556 1557 1557 1558 1558 1559 1559 1559 1559 1559 1558 1559 1559 1558 1558 1557 1556 1556 1555 1555 1555 1555
1531 1533 1534 1536 1537 1539 1541 1543 1545 1546 1547 1548 1549 1550 1551 1552 1553 1554 1554 1555 1556 1557 1557 1558 1558 1559 1559 1559 1559 1559 1559 1559 1560 1559 1558 1558 1557 1557 1556 1556 1555 1555 1555
1530 1533 1534 1536 1538 1539 1541 1543 1544 1546 1547 1548 1549 1550 1551 1552 1553 1554 1555 1556 1556 1557 1558 1558 1559 1559 1559 1559 1559 1559 1559 1559 1560 1559 1559 1558 1557 1557 1556 1556 1556 1555 1555
1529 1531 1534 1535 1537 1539 1541 1542 1544 1545 1547 1548 1549 1550 1551 1552 1554 1554 1555 1556 1557 1557 1558 1558 1559 1559 1559 1559 1559 1559 1559 1560 1559 1559 1558 1557 1557 1557 1556 1556 1556 1555 1555
1528 1530 1532 1534 1536 1538 1539 1541 1543 1544 1546 1547 1549 1549 1551 1553 1554 1554 1554 1555 1556 1557 1557 1558 1559 1559 1559 1559 1558 1558 1559 1559 1559 1559 1558 1557 1557 1557 1556 1556 1556 1555 1554
1527 1529 1530 1532 1534 1536 1538 1540 1541 1543 1544 1546 1547 1548 1550 1551 1552 1553 1554 1554 1555 1556 1557 1557 1558 1558 1558 1558 1558 1558 1558 1558 1559 1558 1557 1556 1556 1556 1556 1555 1555 1554 1553
1526 1527 1529 1530 1532 1534 1536 1538 1539 1541 1542 1543 1544 1546 1547 1548 1550 1551 1552 1553 1554 1555 1555 1556 1556 1557 1557 1557 1556 1556 1556 1557 1557 1557 1555 1555 1555 1555 1555 1554 1554 1553 1553
1524 1525 1527 1528 1530 1532 1533 1535 1537 1538 1539 1541 1542 1543 1544 1545 1547 1548 1550 1551 1552 1553 1553 1554 1555 1555 1555 1555 1555 1555 1555 1555 1555 1555 1554 1554 1554 1554 1554 1554 1553 1553 1552
1522 1524 1525 1526 1528 1529 1530 1532 1533 1535 1536 1537 1538 1539 1540 1542 1543 1544 1546 1547 1548 1549 1551 1552 1552 1552 1553 1553 1553 1553 1553 1553 1553 1554 1553 1552 1552 1552 1552 1552 1552 1552 1552
1520 1521 1522 1523 1524 1526 1527 1528 1529 1531 1532 1533 1534 1535 1536 1538 1539 1540 1542 1543 1544 1545 1547 1548 1549 1549 1550 1550 1550 1550 1550 1551 1551 1551 1551 1551 1550 1550 1551 1551 1551 1551 1551
1516 1517 1518 1519 1520 1521 1522 1523 1525 1526 1527 1528 1530 1531 1532 1533 1534 1536 1537 1538 1540 1541 1542 1544 1545 1546 1547 1547 1548 1548 1548 1548 1548 1548 1548 1548 1549 1549 1549 1549 1549 1549 1550
1511 1512 1513 1514 1515 1517 1518 1519 1520 1521 1522 1523 1524 1525 1527 1528 1529 1530 1531 1533 1534 1536 1537 1539 1540 1542 1543 1544 1544 1545 1545 1545 1545 1545 1545 1545 1546 1546 1546 1546 1547 1547 1548
1505 1506 1507 1508 1510 1511 1512 1513 1514 1514 1516 1517 1518 1519 1520 1522 1523 1524 1525 1527 1528 1530 1531 1533 1535 1537 1538 1540 1540 1541 1541 1541 1541 1541 1542 1542 1542 1543 1544 1544 1545 1545 1545
1499 1500 1501 1502 1504 1505 1506 1506 1507 1507 1509 1510 1511 1512 1513 1515 1516 1518 1519 1520 1522 1523 1525 1528 1529 1531 1533 1535 1536 1537 1537 1537 1537 1537 1537 1538 1539 1539 1540 1541 1541 1542 1542
1494 1494 1495 1496 1497 1498 1499 1500 1500 1501 1502 1503 1504 1505 1506 1508 1509 1510 1512 1513 1514 1516 1518 1520 1522 1524 1526 1529 1531 1532 1533 1533 1531 1531 1532 1533 1534 1535 1536 1537 1537 1538 1538
1489 1489 1489 1490 1490 1491 1492 1493 1493 1493 1494 1495 1495 1496 1498 1500 1501 1502 1504 1506 1507 1509 1510 1512 1514 1517 1519 1522 1524 1527 1527 1526 1526 1526 1527 1528 1529 1530 1531 1532 1533 1533 1533
1487 1486 1485 1485 1485 1485 1485 1485 1485 1485 1485 1486 1488 1489 1490 1491 1492 1494 1496 1498 1499 1501 1503 1504 1507 1509 1512 1514 1516 1518 1520 1520 1521 1521 1521 1523 1524 1525 1526 1527 1528 1528 1528
1485 1483 1482 1481 1480 1480 1479 1479 1479 1479 1479 1481 1482 1482 1483 1483 1484 1485 1487 1489 1491 1493 1495 1497 1499 1501 1504 1506 1508 1510 1512 1514 1516 1517 1516 1517 1518 1520 1521 1522 1522 1523 1523
1482 1480 1479 1477 1476 1475 1474 1473 1473 1472 1473 1474 1474 1474 1475 1476 1476 1476 1478 1480 1481 1483 1486 1488 1490 1493 1495 1498 1500 1502 1504 1506 1508 1510 1511 1511 1512 1513 1515 1516 1516 1517 1517